{"data":{"norad_id":50001,"intl_designator":"2021-123A","name":"EXPRESS AMU-7","alt_names":[],"object_type":"PAYLOAD","status":"ACTIVE","operator":null,"country":"CIS","launch_date":"2021-12-13","launch_site_code":"TYMSC","launch_vehicle":null,"mission":null,"orbit_class":"UNKNOWN","rcs_meters":null,"size_class":null,"mass_kg":null,"dimensions":null,"purposes":["comms"],"wikipedia_slug":null,"has_3d_model":false,"image_url":null,"decayed_at":null,"tle_current":{"epoch":"2026-05-25T04:25:58.297728Z","epoch_age_seconds":58824,"freshness":"FRESH","line1":"1 50001U 21123A   26145.18470252  .00000000  00000+0  00000+0 0  9990","line2":"2 50001   0.0203 299.1023 0000185 168.2016 346.9694  1.00269398 16317","mean_motion":1.00269398,"eccentricity":1.85e-5,"inclination_deg":0.0203,"raan_deg":299.1023,"arg_perigee_deg":168.2016,"mean_anomaly_deg":346.9694,"bstar":0,"rev_number":1631,"period_min":1436.131091562,"perigee_km":35786.484077295,"apogee_km":35788.044197137,"semimajor_km":42165.401137216,"source":"CELESTRAK","updated_at":"2026-05-25T13:38:14.104333Z"}}}